Presure
310 306 308 302 303 307 305 315 299 299 225 292 243 271 228 263 260 256 254 256 242 259 243 241 247 265 263 260 252 126 254 254 255 256 260 267 278 206 284 296 226 275 179 145
299 310 294 301 293 291 292 293 295 287 287 280 226 269 209 257 253 248 250 259 257 255 247 242 263 260 252 249 248 249 251 252 254 255 264 272 232 283 243 298 301 301 220 200
291 292 287 288 283 281 274 269 274 280 273 268 274 267 267 262 252 235 254 248 248 260 265 258 254 247 246 246 246 245 248 251 249 253 257 254 254 269 278 290 301 347 323 173
297 283 281 292 275 270 268 270 272 269 266 267 261 251 246 247 256 244 246 261 275 261 261 249 244 241 240 238 241 245 242 243 242 245 269 284 417 484 575 536 450 309 238 338
273 293 281 275 277 272 266 262 267 258 257 255 251 260 252 247 239 250 279 261 254 249 243 237 235 236 237 235 239 250 239 253 258 277 284 452 559 595 599 606 616 443 474 324
286 287 286 278 272 276 269 268 256 251 254 257 248 263 259 249 265 255 255 245 243 235 233 233 233 238 240 245 249 253 254 257 265 268 440 500 553 555 567 577 601 530 565 296
283 281 280 279 283 275 268 265 262 259 258 261 274 276 266 254 249 247 242 240 234 230 230 229 235 243 241 239 248 253 242 251 259 355 437 530 538 539 542 555 585 594 468 354
280 273 277 275 274 281 279 277 273 291 287 264 259 254 247 248 238 237 235 231 229 228 224 236 244 244 244 254 257 227 247 249 312 423 459 499 510 519 528 548 575 603 526 392
284 277 272 271 274 269 268 263 263 261 255 251 248 245 237 236 239 235 234 224 227 228 233 238 214 228 255 253 247 244 239 289 314 433 471 489 498 520 530 549 570 595 636 676
298 278 278 271 271 268 259 253 256 262 253 246 239 233 235 235 233 233 230 224 226 225 214 211 214 221 249 246 237 233 257 294 404 444 455 475 498 506 534 552 574 423 626 393
336 295 279 271 270 271 263 258 258 256 249 239 237 234 232 234 230 229 227 226 224 223 218 217 219 231 243 230 243 240 265 295 424 446 443 470 497 509 527 555 573 549 625 375
323 301 289 281 270 261 270 264 263 256 244 237 241 224 228 164 228 222 230 218 222 222 227 227 224 227 241 226 237 238 264 295 433 430 440 472 500 504 519 555 577 465 622 647
297 330 337 287 283 273 259 263 261 259 251 237 244 230 229 224 218 216 221 220 223 226 226 223 225 224 231 238 232 238 264 293 436 430 450 485 506 494 529 549 574 492 634 358
249 273 327 326 292 266 266 266 265 261 255 251 241 233 239 230 223 223 222 228 225 224 227 225 227 224 226 235 231 238 263 287 413 428 338 494 485 507 528 553 578 607 519 275
247 230 288 315 306 312 272 265 265 261 263 255 249 238 238 247 229 223 228 227 228 224 226 223 223 223 225 232 234 237 263 279 346 430 447 494 486 521 538 566 581 587 178 266
273 237 309 202 319 309 326 281 275 265 264 266 254 238 242 239 243 236 229 229 227 225 227 222 224 223 227 234 238 237 260 275 291 425 446 456 492 532 459 563 459 451 469 278
298 267 218 324 288 306 298 311 298 276 263 262 263 256 252 245 242 243 233 236 232 231 228 226 226 224 228 233 228 233 254 268 283 361 426 440 519 481 476 455 432 474 426 252
302 302 305 311 236 310 300 296 315 302 280 262 260 258 253 253 241 238 242 234 234 235 230 225 226 227 227 235 216 228 250 262 274 320 426 429 518 437 440 439 445 478 402 260
305 308 309 317 319 225 294 294 298 317 297 274 261 266 260 248 248 244 240 234 239 234 231 230 234 234 234 231 242 228 242 260 271 271 347 422 504 459 445 422 426 411 326 272
269 335 339 341 344 343 297 286 303 258 307 296 279 255 269 263 250 248 241 232 233 234 232 234 239 237 238 235 242 245 238 249 262 272 317 396 422 449 418 417 424 411 400 275
413 395 380 366 361 359 339 327 276 304 305 302 287 272 254 262 258 252 251 238 235 231 233 234 238 239 238 235 238 227 234 246 261 272 269 330 397 441 467 372 384 385 392 269
464 449 430 404 397 383 352 320 269 297 308 309 291 271 271 264 264 265 257 256 239 239 230 231 230 234 235 239 240 241 246 249 252 261 270 302 334 429 447 491 361 390 391 257
418 414 415 422 425 408 378 350 346 283 304 290 295 283 268 265 261 256 262 253 244 239 234 233 232 233 236 238 242 257 254 244 241 265 265 267 311 336 402 454 564 420 426 262
410 410 405 404 385 394 399 390 371 317 308 298 304 282 277 270 260 232 254 250 251 249 243 238 239 238 239 242 249 254 259 252 257 253 262 275 286 314 337 370 452 469 476 251
418 414 405 401 392 403 394 389 364 389 310 305 317 289 281 269 264 255 251 253 252 243 244 245 244 244 239 245 252 251 249 253 261 239 254 258 274 291 316 334 363 450 463 323
414 407 396 409 433 435 425 418 415 394 340 308 298 285 283 275 263 259 254 247 251 251 248 247 245 246 249 256 258 251 254 254 261 262 246 261 258 275 296 314 326 359 414 237
Wind_Speed
30 32 28 34 40 37 40 43 52 58 69 67 71 73 76 72 74 78 77 77 82 79 77 78 76 68 67 67 72 80 79 84 88 92 96 100 103 89 108 107 105 115 96 89
30 29 33 37 39 38 37 41 46 52 56 58 69 67 74 70 76 74 74 77 72 74 77 76 69 66 68 71 77 80 84 89 91 94 98 102 96 105 105 118 119 121 109 98
31 31 29 35 38 41 43 45 43 42 50 53 53 60 62 65 70 74 73 72 73 74 71 69 66 68 70 75 77 81 86 88 88 92 90 91 98 104 107 109 109 124 120 108
28 32 34 33 37 40 41 42 42 45 47 48 55 59 65 67 68 69 68 66 59 58 62 64 66 68 71 71 76 82 82 84 83 84 96 97 89 80 63 73 90 115 104 128
32 33 38 40 42 46 45 46 45 49 50 53 58 58 62 66 64 63 57 54 54 56 59 62 66 69 69 71 78 82 81 86 91 94 97 81 59 50 48 51 54 95 76 113
30 31 37 43 41 44 46 45 48 49 50 51 56 57 55 62 57 56 51 51 53 55 59 62 64 67 71 75 77 79 82 86 89 91 80 65 50 47 46 46 48 74 74 108
31 31 34 36 41 47 47 47 47 47 49 49 53 49 50 53 53 51 50 49 51 54 57 59 63 67 71 72 75 77 75 82 89 98 73 48 44 46 46 46 45 52 90 100
33 34 35 36 37 40 44 45 47 42 41 43 43 42 47 48 51 51 47 48 49 52 54 60 62 66 69 71 71 64 76 83 88 72 63 48 42 43 45 43 43 43 69 95
36 38 38 38 37 38 39 41 42 41 43 43 43 44 46 50 49 48 45 45 47 49 51 53 48 57 63 63 65 70 73 80 86 65 53 42 39 37 36 36 38 39 41 49
38 39 41 41 42 41 41 41 43 44 42 43 43 46 46 48 47 46 45 43 44 47 48 49 51 54 58 60 63 66 74 78 69 57 51 39 32 33 32 30 32 71 41 80
30 41 43 42 44 45 44 44 46 45 42 39 42 45 50 47 45 46 43 42 43 47 51 52 52 56 57 54 62 65 71 77 61 51 47 36 28 26 26 22 26 41 42 99
28 35 45 46 47 46 47 46 47 47 43 42 45 47 49 43 44 50 44 41 43 48 51 52 51 54 55 50 57 61 68 75 55 48 44 31 24 24 24 18 22 49 42 56
30 30 34 49 50 50 49 51 50 49 47 46 46 47 52 47 43 53 43 42 45 49 50 49 50 50 52 53 51 58 66 73 51 45 39 25 21 23 21 17 19 39 41 99
37 39 34 38 54 51 52 54 55 53 52 50 49 50 56 48 45 57 47 46 44 48 49 48 49 49 48 49 48 54 62 70 56 43 18 18 24 22 16 15 18 29 45 115
41 41 38 39 48 55 57 59 58 55 57 50 58 51 56 50 49 52 50 44 44 47 48 46 46 47 44 45 47 50 58 64 71 41 35 16 20 14 11 11 22 45 34 113
49 52 41 48 42 50 48 68 64 61 59 56 55 55 52 51 48 50 51 44 43 46 48 46 45 43 43 44 47 46 53 60 65 41 32 27 12 7 19 12 32 48 50 109
65 58 53 37 48 48 51 56 68 67 62 58 58 56 56 56 51 49 49 45 43 44 46 46 44 40 42 41 37 40 46 53 59 63 34 26 7 26 33 43 42 38 60 111
71 67 62 47 64 41 51 57 59 66 70 61 59 57 54 54 52 46 46 42 41 42 44 44 44 41 40 41 25 34 40 46 52 61 33 27 8 20 31 34 36 46 68 111
75 73 70 64 56 61 46 57 62 59 65 66 62 61 59 53 52 49 45 44 40 41 42 44 45 43 41 35 38 30 34 40 45 38 56 26 9 16 34 45 47 55 85 108
65 80 77 71 69 58 53 65 59 54 64 67 68 57 59 58 56 51 47 45 42 41 41 43 43 42 40 36 36 33 28 29 36 39 48 39 20 3 39 43 53 53 51 112
67 67 68 69 67 56 57 56 59 63 65 66 67 63 56 57 55 50 49 48 44 42 40 40 40 39 38 34 31 24 23 24 30 35 29 42 33 12 21 30 43 58 66 111
38 41 52 66 65 60 58 57 50 64 63 64 68 63 63 59 55 52 49 47 45 44 42 40 38 37 37 37 32 28 27 23 19 21 25 31 35 18 8 26 35 47 64 102
31 39 41 42 42 52 64 66 61 63 63 65 67 68 65 60 54 48 46 46 45 44 43 41 39 37 37 37 34 34 30 22 14 20 16 13 23 27 23 7 46 44 61 100
33 33 35 39 38 42 47 57 62 66 64 66 67 68 68 61 56 44 47 47 46 45 43 42 42 40 38 36 36 32 31 24 21 15 11 16 15 18 21 20 3 9 43 97
30 27 31 34 39 42 45 49 45 54 67 67 61 70 67 61 58 53 49 48 49 44 44 43 41 40 37 38 39 32 29 27 26 16 13 7 8 10 10 12 15 2 8 68
31 27 27 24 29 30 29 38 40 44 60 67 66 64 65 65 59 56 52 48 50 49 46 44 41 40 40 41 39 35 33 31 32 26 18 16 15 9 8 4 5 7 3 88
Wind_Direction
257 255 251 242 242 245 244 232 241 244 251 250 252 252 253 255 255 257 257 257 261 263 263 263 266 265 262 261 259 256 258 257 255 254 253 252 248 243 242 238 241 229 233 230
259 255 253 248 244 246 247 246 242 244 247 248 252 250 254 251 253 255 259 262 262 262 262 264 266 262 260 260 259 259 259 259 260 260 259 257 252 256 247 245 237 229 231 232
263 257 254 241 245 245 247 246 246 244 244 247 250 249 254 251 252 254 259 259 263 266 265 262 261 260 260 260 263 264 265 266 267 267 266 264 259 258 256 253 249 237 229 222
262 259 253 244 243 246 246 248 247 247 248 249 250 248 252 252 255 257 261 265 262 262 262 261 263 265 266 269 270 270 273 274 273 272 272 271 274 270 265 253 244 240 232 224
266 250 250 252 250 247 247 247 247 248 248 248 251 251 253 254 258 261 260 259 261 260 262 265 266 269 272 272 273 276 277 279 281 283 284 286 282 279 273 267 261 231 231 222
262 255 250 249 252 249 247 245 245 248 249 248 249 252 251 255 256 257 257 257 259 261 265 267 270 273 276 278 281 283 286 288 289 289 294 291 285 280 278 270 265 237 235 213
260 257 254 254 253 250 249 249 246 245 248 249 252 248 247 249 252 255 257 259 263 266 270 273 277 280 281 285 287 287 290 293 293 307 297 295 289 284 279 271 266 250 225 210
262 261 254 253 253 251 248 249 248 245 242 243 241 242 246 248 251 254 258 260 265 269 273 278 281 283 286 287 288 291 296 297 312 305 302 298 293 287 281 272 262 253 225 206
263 261 262 259 252 250 248 246 245 240 238 239 242 242 244 251 254 258 260 263 269 274 279 283 280 291 289 290 294 298 300 311 318 308 308 303 302 290 281 267 256 247 236 226
254 260 259 260 256 249 249 250 248 242 237 238 243 249 251 252 257 261 262 267 273 275 273 273 283 289 293 297 301 302 304 320 318 313 313 312 308 299 290 267 252 215 229 216
273 255 257 258 258 252 249 248 246 246 245 245 245 249 253 255 259 264 265 271 275 276 275 279 286 296 297 301 304 305 315 327 322 319 319 323 315 309 301 276 251 227 224 200
298 270 257 252 255 260 254 249 244 242 244 244 244 248 253 257 260 264 265 268 273 278 281 285 291 295 301 304 306 311 321 332 327 325 325 335 333 321 309 294 258 209 217 210
309 295 271 255 253 252 256 255 251 246 244 245 244 242 250 253 259 265 268 268 275 277 280 284 290 295 302 305 309 316 325 337 334 331 332 348 345 327 320 284 257 206 209 192
293 290 288 267 251 255 252 252 253 251 247 245 247 244 247 247 251 257 265 269 271 275 279 283 289 293 301 308 314 320 329 339 342 338 318 357 349 329 318 281 246 211 174 192
290 274 286 276 258 250 249 252 250 251 249 246 247 245 249 248 245 256 259 262 268 272 275 279 285 292 301 311 317 322 334 341 352 344 348 19 353 335 306 255 212 181 220 192
300 284 295 272 271 257 251 245 247 248 249 246 244 247 249 250 248 250 257 258 260 265 271 276 283 291 302 312 318 324 337 344 348 351 355 3 11 332 154 145 158 167 174 189
302 296 284 287 264 259 251 247 244 243 246 246 246 245 247 249 250 250 252 255 258 262 268 275 283 291 302 310 316 324 337 346 349 3 357 360 85 145 140 147 157 174 167 195
298 294 289 282 271 259 254 250 247 241 241 243 245 246 245 245 248 249 254 254 258 262 268 276 283 290 297 306 308 321 335 347 351 357 4 2 123 171 156 155 159 166 182 195
290 287 284 282 271 269 247 246 246 243 239 240 242 242 243 246 249 251 253 255 258 261 268 274 281 287 293 302 310 315 330 346 353 355 9 8 142 194 166 149 145 163 187 194
290 287 284 280 275 270 241 242 242 245 238 235 238 241 242 242 246 248 249 253 256 259 264 271 277 283 290 297 307 314 322 340 350 357 3 16 15 353 167 163 150 159 177 193
274 271 268 266 265 264 258 250 245 234 234 233 233 237 240 241 242 245 246 249 252 255 259 267 273 281 286 291 300 296 312 329 347 355 1 12 20 47 180 187 187 191 173 199
285 277 266 258 256 252 247 248 249 234 229 229 230 235 236 237 240 243 244 246 246 250 255 261 267 275 282 288 293 299 308 316 335 351 1 5 17 33 79 201 198 211 202 202
272 265 266 266 264 258 245 239 239 230 223 229 226 227 234 236 238 240 241 242 244 247 253 258 264 270 277 283 289 301 305 303 303 335 352 5 8 20 31 107 205 217 204 199
267 268 266 263 259 254 253 248 237 226 218 220 220 226 228 233 235 242 239 241 245 246 250 256 261 266 272 278 287 292 299 296 300 302 317 337 356 9 20 28 107 212 219 202
272 267 265 265 265 259 253 249 251 236 217 218 215 222 225 231 234 239 240 241 243 247 249 252 257 262 266 274 282 282 282 287 295 258 278 236 312 336 1 20 31 50 229 208
284 282 293 292 284 279 264 258 249 239 207 217 218 223 223 227 233 237 242 244 247 248 249 252 255 260 266 273 274 274 278 281 288 282 248 259 211 247 281 249 204 35 357 206